timestamp,wind_dir_avg,wind_spd_max_dir,wind_spd_avg,wind_spd_gust,battery_voltage,lat,long
2018-11-08 00:00:00+00:00,244.0,240.0,7.16,8.19,,47.59359,-54.27349
2018-11-08 00:10:00+00:00,240.0,242.0,6.24,7.57,,47.59359,-54.27349
2018-11-08 00:20:00+00:00,254.0,258.0,8.44,9.29,,47.59359,-54.27349
2018-11-08 00:30:00+00:00,251.0,252.0,8.19,8.84,,47.59359,-54.27349
2018-11-08 00:40:00+00:00,237.0,240.0,6.38,7.79,,47.59359,-54.27349
2018-11-08 00:50:00+00:00,236.0,231.0,5.83,7.53,,47.59359,-54.27349
2018-11-08 01:00:00+00:00,240.0,240.0,8.23,9.99,,47.59359,-54.27349
2018-11-08 01:10:00+00:00,234.0,234.0,8.52,9.32,,47.59359,-54.27349
2018-11-08 01:20:00+00:00,243.0,236.0,7.18,9.36,,47.59359,-54.27349
2018-11-08 01:30:00+00:00,243.0,245.0,8.16,9.57,,47.59359,-54.27349
2018-11-08 01:40:00+00:00,247.0,251.0,7.72,8.35,,47.59359,-54.27349
2018-11-08 01:50:00+00:00,240.0,242.0,6.44,8.22,,47.59359,-54.27349
2018-11-08 02:00:00+00:00,253.0,252.0,7.36,8.51,,47.59359,-54.27349
2018-11-08 02:10:00+00:00,258.0,258.0,6.7,7.82,,47.59359,-54.27349
2018-11-08 02:20:00+00:00,248.0,250.0,7.28,8.44,,47.59359,-54.27349
2018-11-08 02:30:00+00:00,245.0,251.0,8.33,9.96,,47.59359,-54.27349
2018-11-08 02:40:00+00:00,243.0,241.0,7.98,9.35,,47.59359,-54.27349
2018-11-08 02:50:00+00:00,249.0,247.0,8.54,10.56,,47.59359,-54.27349
2018-11-08 03:00:00+00:00,252.0,256.0,8.39,9.48,,47.59359,-54.27349
2018-11-08 03:10:00+00:00,262.0,268.0,9.91,11.25,,47.59359,-54.27349
2018-11-08 03:20:00+00:00,256.0,255.0,8.38,9.45,,47.59359,-54.27349
2018-11-08 03:30:00+00:00,256.0,257.0,9.42,10.96,,47.59359,-54.27349
2018-11-08 03:40:00+00:00,255.0,261.0,9.47,10.92,,47.59359,-54.27349
2018-11-08 03:50:00+00:00,254.0,258.0,9.31,10.43,,47.59359,-54.27349
2018-11-08 04:00:00+00:00,255.0,254.0,8.71,9.59,,47.59359,-54.27349
2018-11-08 04:10:00+00:00,259.0,259.0,8.79,9.8,,47.59359,-54.27349
2018-11-08 04:20:00+00:00,255.0,258.0,8.3,9.9,,47.59359,-54.27349
2018-11-08 04:30:00+00:00,257.0,256.0,7.89,8.85,,47.59359,-54.27349
2018-11-08 04:40:00+00:00,257.0,259.0,9.14,10.63,,47.59359,-54.27349
2018-11-08 04:50:00+00:00,260.0,256.0,10.88,12.45,,47.59359,-54.27349
2018-11-08 05:00:00+00:00,270.0,274.0,10.43,11.82,,47.59359,-54.27349
2018-11-08 05:10:00+00:00,271.0,267.0,11.04,12.66,,47.59359,-54.27349
2018-11-08 05:20:00+00:00,269.0,268.0,10.84,12.12,,47.59359,-54.27349
2018-11-08 05:30:00+00:00,262.0,268.0,10.04,11.65,,47.59359,-54.27349
2018-11-08 05:40:00+00:00,266.0,267.0,12.12,14.21,,47.59359,-54.27349
2018-11-08 05:50:00+00:00,261.0,261.0,11.49,12.98,,47.59359,-54.27349
2018-11-08 06:00:00+00:00,266.0,266.0,11.12,12.47,,47.59359,-54.27349
2018-11-08 06:10:00+00:00,265.0,269.0,12.27,14.29,,47.59359,-54.27349
2018-11-08 06:20:00+00:00,269.0,273.0,11.52,14.13,,47.59359,-54.27349
2018-11-08 06:30:00+00:00,269.0,279.0,11.77,14.0,,47.59359,-54.27349
2018-11-08 06:40:00+00:00,271.0,266.0,11.56,12.92,,47.59359,-54.27349
2018-11-08 06:50:00+00:00,267.0,265.0,10.89,12.82,,47.59359,-54.27349
2018-11-08 07:00:00+00:00,267.0,270.0,10.02,11.89,,47.59359,-54.27349
2018-11-08 07:10:00+00:00,268.0,266.0,11.27,12.81,,47.59359,-54.27349
2018-11-08 07:20:00+00:00,266.0,266.0,11.63,13.35,,47.59359,-54.27349
2018-11-08 07:30:00+00:00,270.0,272.0,13.81,16.38,,47.59359,-54.27349
2018-11-08 07:40:00+00:00,275.0,280.0,11.99,15.21,,47.59359,-54.27349
2018-11-08 07:50:00+00:00,277.0,273.0,12.04,14.46,,47.59359,-54.27349
2018-11-08 08:00:00+00:00,277.0,283.0,11.64,14.0,,47.59359,-54.27349
2018-11-08 08:10:00+00:00,275.0,272.0,10.74,12.92,,47.59359,-54.27349
2018-11-08 08:20:00+00:00,273.0,271.0,10.56,12.39,,47.59359,-54.27349
2018-11-08 08:30:00+00:00,274.0,273.0,12.56,14.45,,47.59359,-54.27349
2018-11-08 08:40:00+00:00,273.0,275.0,12.33,14.19,,47.59359,-54.27349
2018-11-08 08:50:00+00:00,265.0,267.0,10.12,11.69,,47.59359,-54.27349
2018-11-08 09:00:00+00:00,270.0,275.0,10.64,11.94,,47.59359,-54.27349
2018-11-08 09:10:00+00:00,272.0,275.0,10.15,12.06,,47.59359,-54.27349
2018-11-08 09:20:00+00:00,273.0,271.0,10.29,11.8,,47.59359,-54.27349
2018-11-08 09:30:00+00:00,271.0,265.0,11.36,14.83,,47.59359,-54.27349
2018-11-08 09:40:00+00:00,266.0,267.0,12.34,14.62,,47.59359,-54.27349
2018-11-08 09:50:00+00:00,271.0,273.0,11.93,13.24,,47.59359,-54.27349
2018-11-08 10:00:00+00:00,272.0,280.0,12.53,14.75,,47.59359,-54.27349
2018-11-08 10:10:00+00:00,270.0,271.0,12.06,14.3,,47.59359,-54.27349
2018-11-08 10:20:00+00:00,271.0,275.0,13.55,15.87,,47.59359,-54.27349
2018-11-08 10:30:00+00:00,270.0,267.0,10.42,11.71,,47.59359,-54.27349
2018-11-08 10:40:00+00:00,278.0,288.0,11.97,15.21,,47.59359,-54.27349
2018-11-08 10:50:00+00:00,277.0,282.0,11.62,13.43,,47.59359,-54.27349
2018-11-08 11:00:00+00:00,276.0,286.0,11.52,14.65,,47.59359,-54.27349
2018-11-08 11:10:00+00:00,274.0,276.0,14.0,16.66,,47.59359,-54.27349
2018-11-08 11:20:00+00:00,276.0,276.0,13.36,14.98,,47.59359,-54.27349
2018-11-08 11:30:00+00:00,275.0,285.0,15.06,17.1,,47.59359,-54.27349
2018-11-08 11:40:00+00:00,277.0,261.0,14.25,18.7,,47.59359,-54.27349
2018-11-08 11:50:00+00:00,276.0,276.0,13.64,18.3,,47.59359,-54.27349
2018-11-08 12:00:00+00:00,271.0,275.0,13.05,15.12,,47.59359,-54.27349
2018-11-08 12:10:00+00:00,276.0,275.0,14.71,17.02,,47.59359,-54.27349
2018-11-08 12:20:00+00:00,271.0,276.0,13.67,15.44,,47.59359,-54.27349
2018-11-08 12:30:00+00:00,271.0,272.0,13.95,16.11,,47.59359,-54.27349
2018-11-08 12:40:00+00:00,272.0,279.0,16.04,19.0,,47.59359,-54.27349
2018-11-08 12:50:00+00:00,274.0,268.0,13.32,17.19,,47.59359,-54.27349
2018-11-08 13:00:00+00:00,271.0,271.0,14.7,17.03,,47.59359,-54.27349
2018-11-08 13:10:00+00:00,271.0,273.0,13.44,15.31,,47.59359,-54.27349
2018-11-08 13:20:00+00:00,276.0,271.0,11.83,13.37,,47.59359,-54.27349
2018-11-08 13:30:00+00:00,273.0,273.0,14.38,16.09,,47.59359,-54.27349
2018-11-08 13:40:00+00:00,275.0,274.0,15.43,17.44,,47.59359,-54.27349
2018-11-08 13:50:00+00:00,275.0,274.0,15.09,16.57,,47.59359,-54.27349
2018-11-08 14:00:00+00:00,273.0,268.0,13.83,15.62,,47.59359,-54.27349
2018-11-08 14:10:00+00:00,277.0,282.0,15.56,17.68,,47.59359,-54.27349
2018-11-08 14:20:00+00:00,277.0,281.0,14.3,16.42,,47.59359,-54.27349
2018-11-08 14:30:00+00:00,271.0,268.0,15.05,18.25,,47.59359,-54.27349
2018-11-08 14:40:00+00:00,280.0,272.0,16.72,20.36,,47.59359,-54.27349
2018-11-08 14:50:00+00:00,275.0,272.0,17.64,21.88,,47.59359,-54.27349
2018-11-08 15:00:00+00:00,273.0,275.0,13.82,17.26,,47.59359,-54.27349
2018-11-08 15:10:00+00:00,272.0,277.0,16.38,20.5,,47.59359,-54.27349
2018-11-08 15:20:00+00:00,276.0,276.0,17.09,20.96,,47.59359,-54.27349
2018-11-08 15:30:00+00:00,276.0,282.0,18.47,22.11,,47.59359,-54.27349
2018-11-08 15:40:00+00:00,277.0,273.0,14.73,18.33,,47.59359,-54.27349
2018-11-08 15:50:00+00:00,272.0,272.0,15.23,17.05,,47.59359,-54.27349
2018-11-08 16:00:00+00:00,278.0,275.0,17.32,19.81,,47.59359,-54.27349
2018-11-08 16:10:00+00:00,277.0,285.0,16.85,19.43,,47.59359,-54.27349
2018-11-08 16:20:00+00:00,269.0,267.0,16.33,19.24,,47.59359,-54.27349
2018-11-08 16:30:00+00:00,275.0,274.0,18.49,21.28,,47.59359,-54.27349
2018-11-08 16:40:00+00:00,278.0,283.0,13.57,16.02,,47.59359,-54.27349
2018-11-08 16:50:00+00:00,276.0,278.0,16.05,19.38,,47.59359,-54.27349
2018-11-08 17:00:00+00:00,282.0,285.0,14.16,15.79,,47.59359,-54.27349
2018-11-08 17:10:00+00:00,279.0,276.0,16.84,20.34,,47.59359,-54.27349
2018-11-08 17:20:00+00:00,274.0,266.0,14.21,18.52,,47.59359,-54.27349
2018-11-08 17:30:00+00:00,275.0,273.0,15.2,17.41,,47.59359,-54.27349
2018-11-08 17:40:00+00:00,274.0,277.0,14.63,16.19,,47.59359,-54.27349
2018-11-08 17:50:00+00:00,275.0,276.0,15.6,18.15,,47.59359,-54.27349
2018-11-08 18:00:00+00:00,279.0,272.0,12.39,14.01,,47.59359,-54.27349
2018-11-08 18:10:00+00:00,277.0,276.0,14.33,17.26,,47.59359,-54.27349
2018-11-08 18:20:00+00:00,278.0,281.0,16.33,18.6,,47.59359,-54.27349
2018-11-08 18:30:00+00:00,276.0,279.0,13.05,16.33,,47.59359,-54.27349
2018-11-08 18:40:00+00:00,271.0,267.0,13.4,15.39,,47.59359,-54.27349
2018-11-08 18:50:00+00:00,276.0,277.0,13.99,15.73,,47.59359,-54.27349
2018-11-08 19:00:00+00:00,274.0,279.0,14.29,15.84,,47.59359,-54.27349
2018-11-08 19:10:00+00:00,278.0,287.0,13.12,15.26,,47.59359,-54.27349
2018-11-08 19:20:00+00:00,271.0,280.0,13.41,15.44,,47.59359,-54.27349
2018-11-08 19:30:00+00:00,274.0,280.0,13.79,15.93,,47.59359,-54.27349
2018-11-08 19:40:00+00:00,270.0,267.0,12.75,15.82,,47.59359,-54.27349
2018-11-08 19:50:00+00:00,271.0,273.0,12.71,14.62,,47.59359,-54.27349
2018-11-08 20:00:00+00:00,274.0,274.0,12.46,13.89,,47.59359,-54.27349
2018-11-08 20:10:00+00:00,277.0,271.0,11.84,14.48,,47.59359,-54.27349
2018-11-08 20:20:00+00:00,281.0,284.0,11.41,13.43,,47.59359,-54.27349
2018-11-08 20:30:00+00:00,280.0,284.0,10.45,12.48,,47.59359,-54.27349
2018-11-08 20:40:00+00:00,279.0,275.0,12.13,14.54,,47.59359,-54.27349
2018-11-08 20:50:00+00:00,277.0,277.0,9.87,11.21,,47.59359,-54.27349
2018-11-08 21:00:00+00:00,284.0,291.0,8.89,10.31,,47.59359,-54.27349
2018-11-08 21:10:00+00:00,281.0,286.0,7.99,9.56,,47.59359,-54.27349
2018-11-08 21:20:00+00:00,275.0,283.0,7.49,9.22,,47.59359,-54.27349
2018-11-08 21:30:00+00:00,283.0,280.0,8.51,9.7,,47.59359,-54.27349
2018-11-08 21:40:00+00:00,284.0,287.0,9.36,11.37,,47.59359,-54.27349
2018-11-08 21:50:00+00:00,276.0,275.0,9.87,13.28,,47.59359,-54.27349
2018-11-08 22:00:00+00:00,273.0,270.0,8.28,9.47,,47.59359,-54.27349
2018-11-08 22:10:00+00:00,283.0,282.0,11.28,12.91,,47.59359,-54.27349
2018-11-08 22:20:00+00:00,285.0,287.0,11.49,13.17,,47.59359,-54.27349
2018-11-08 22:30:00+00:00,291.0,298.0,9.28,10.47,,47.59359,-54.27349
2018-11-08 22:40:00+00:00,288.0,289.0,12.88,16.01,,47.59359,-54.27349
2018-11-08 22:50:00+00:00,292.0,294.0,10.57,12.47,,47.59359,-54.27349
2018-11-08 23:00:00+00:00,292.0,296.0,10.42,12.58,,47.59359,-54.27349
2018-11-08 23:10:00+00:00,291.0,290.0,10.76,12.27,,47.59359,-54.27349
2018-11-08 23:20:00+00:00,283.0,284.0,10.64,12.28,,47.59359,-54.27349
2018-11-08 23:30:00+00:00,291.0,286.0,13.06,14.87,,47.59359,-54.27349
2018-11-08 23:40:00+00:00,297.0,294.0,9.93,12.04,,47.59359,-54.27349
2018-11-08 23:50:00+00:00,291.0,291.0,10.51,12.33,,47.59359,-54.27349
